This is the latest recevied weather packets stored in our database for station/object DM3FAM-13. If no packets are shown the sender has not sent any weather packets the latest 10 day(s).
| Time | Temp. | Humidity | Pressure | Rain* | Wind** | Luminosity | Snow |
|---|---|---|---|---|---|---|---|
| 1777777831 | 11.67° C | 82% | 1016.1 hPa | 0 mm | - | 0 W/m² | - |
| 1777777231 | 11.67° C | 85% | 1016.2 hPa | 0 mm | - | 0 W/m² | - |
| 1777775431 | 11.67° C | 85% | 1016.5 hPa | 0 mm | - | 0 W/m² | - |
| 1777774831 | 11.67° C | 85% | 1016.4 hPa | 0 mm | - | 0 W/m² | - |
| 1777774230 | 11.67° C | 86% | 1016.3 hPa | 0 mm | - | 0 W/m² | - |
| 1777773030 | 11.67° C | 86% | 1016.6 hPa | 0 mm | - | 0 W/m² | - |
| 1777771230 | 11.11° C | 87% | 1016.5 hPa | 0 mm | - | 0 W/m² | - |
| 1777770031 | 10.56° C | 87% | 1016.9 hPa | 0 mm | - | 0 W/m² | - |
| 1777768231 | 11.11° C | 86% | 1017 hPa | 0 mm | - | 0 W/m² | - |
| 1777764030 | 11.67° C | 84% | 1017.3 hPa | 0 mm | - | 0 W/m² | - |
| 1777762230 | 12.22° C | 82% | 1017.6 hPa | 0 mm | - | 0 W/m² | - |
| 1777761630 | 11.67° C | 84% | 1017.6 hPa | 0 mm | - | 0 W/m² | - |
| 1777761030 | 11.67° C | 82% | 1017.5 hPa | 0 mm | - | 0 W/m² | - |
| 1777760430 | 12.22° C | 83% | 1017.6 hPa | 0 mm | - | 0 W/m² | - |
| 1777759830 | 12.22° C | 83% | 1017.5 hPa | 0 mm | - | 0 W/m² | - |
| 1777759231 | 12.22° C | 81% | 1017.5 hPa | 0 mm | - | 0 W/m² | - |
| 1777758630 | 12.78° C | 80% | 1017.6 hPa | 0 mm | - | 0 W/m² | - |
| 1777757430 | 13.33° C | 79% | 1017.4 hPa | 0 mm | - | 0 W/m² | - |
| 1777756830 | 13.33° C | 78% | 1017.5 hPa | 0 mm | - | 0 W/m² | - |
| 1777756230 | 12.78° C | 77% | 1017.6 hPa | 0 mm | - | 0 W/m² | - |
| 1777755631 | 12.22° C | 78% | 1017.6 hPa | 0 mm | - | 0 W/m² | - |
| 1777755031 | 12.22° C | 79% | 1017.6 hPa | 0 mm | - | 0 W/m² | - |
| 1777753831 | 12.78° C | 77% | 1017.5 hPa | 0 mm | - | 0 W/m² | - |
| 1777753231 | 12.78° C | 76% | 1017.4 hPa | 0 mm | - | 0 W/m² | - |
| 1777752631 | 12.78° C | 76% | 1017.3 hPa | 0 mm | - | 0 W/m² | - |
* Rain latest hour (hover to see other rain measurements)
** Current wind speed in m/s (hover to see current wind gust speed)